| time (UTC) | temp C | wind direction | speed KPH | gust KPH | rain 1hr cm | rain 24hr cm | rain mn cm | humidity % | barometer mb |
| 20260507085048 | 10 | 236 | 1.6 | 8.0 | 0.00 | 0.48 | 0.48 | 97 | 1010.8 |
| 20260507084044 | 10 | 207 | 0.0 | 6.4 | 0.00 | 0.48 | 0.48 | 98 | 1010.7 |
| 20260507083041 | 10 | 277 | 3.2 | 16.1 | 0.00 | 0.48 | 0.48 | 98 | 1010.7 |
| 20260507075028 | 10 | 207 | 3.2 | 9.7 | 0.00 | 0.48 | 0.48 | 99 | 1010.2 |
| 20260507074024 | 10 | 256 | 3.2 | 9.7 | 0.00 | 0.48 | 0.48 | 99 | 1010.0 |
| 20260507073021 | 10 | 225 | 3.2 | 8.0 | 0.00 | 0.48 | 0.48 | 99 | 1009.8 |
| 20260507072018 | 10 | 238 | 3.2 | 8.0 | 0.00 | 0.48 | 0.48 | 99 | 1009.7 |
| 20260507071115 | 10 | 0.0 | 3.2 | 0.00 | 0.48 | 0.48 | 99 | 1009.6 | |
| 20260507065129 | 10 | 249 | 1.6 | 11.3 | 0.00 | 0.48 | 0.48 | 99 | 1009.5 |
| 20260507064105 | 10 | 283 | 1.6 | 6.4 | 0.00 | 0.48 | 0.48 | 99 | 1009.4 |
| 20260507063102 | 10 | 249 | 1.6 | 8.0 | 0.00 | 0.48 | 0.48 | 99 | 1009.4 |
| 20260507062059 | 10 | 242 | 1.6 | 4.8 | 0.00 | 0.48 | 0.48 | 99 | 1009.3 |
| 20260507061056 | 10 | 262 | 1.6 | 8.0 | 0.00 | 0.48 | 0.48 | 99 | 1009.1 |
| 20260507060052 | 10 | 253 | 1.6 | 6.4 | 0.03 | 0.48 | 0.48 | 99 | 1009.0 |
| 20260507055049 | 10 | 230 | 3.2 | 9.7 | 0.05 | 0.48 | 0.48 | 99 | 1008.8 |
| 20260507053043 | 10 | 201 | 1.6 | 9.7 | 0.15 | 0.48 | 0.48 | 99 | 1008.7 |
| 20260507052040 | 10 | 257 | 3.2 | 12.9 | 0.15 | 0.48 | 0.48 | 99 | 1008.5 |
| 20260507051036 | 10 | 206 | 1.6 | 12.9 | 0.18 | 0.48 | 0.48 | 99 | 1008.4 |
| 20260507050033 | 10 | 270 | 0.0 | 6.4 | 0.15 | 0.46 | 0.46 | 99 | 1008.4 |
| 20260507045030 | 10 | 0.0 | 0.0 | 0.13 | 0.43 | 0.43 | 99 | 1008.2 | |
| 20260507044027 | 10 | 257 | 1.6 | 6.4 | 0.05 | 0.36 | 0.36 | 99 | 1008.1 |
| 20260507043023 | 10 | 270 | 0.0 | 4.8 | 0.03 | 0.33 | 0.33 | 99 | 1008.0 |
| 20260507042020 | 10 | 0.0 | 3.2 | 0.03 | 0.33 | 0.33 | 99 | 1007.9 | |
| 20260507040114 | 10 | 0.0 | 3.2 | 0.00 | 0.30 | 0.30 | 99 | 1007.7 | |
| 20260507034107 | 10 | 0.0 | 3.2 | 0.00 | 0.33 | 0.30 | 99 | 1007.5 | |
| 20260507033124 | 10 | 0.0 | 0.0 | 0.00 | 0.33 | 0.30 | 99 | 1007.5 | |
| 20260507032101 | 10 | 180 | 0.0 | 3.2 | 0.00 | 0.33 | 0.30 | 99 | 1007.4 |
| 20260507030054 | 9 | 258 | 3.2 | 9.7 | 0.10 | 0.33 | 0.30 | 99 | 1007.2 |
| 20260507025051 | 9 | 243 | 1.6 | 9.7 | 0.10 | 0.33 | 0.30 | 99 | 1007.0 |
| 20260507024048 | 10 | 228 | 4.8 | 16.1 | 0.10 | 0.33 | 0.30 | 99 | 1007.0 |
| 20260507023045 | 10 | 134 | 1.6 | 6.4 | 0.13 | 0.33 | 0.30 | 99 | 1007.0 |
| 20260507022042 | 10 | 214 | 4.8 | 17.7 | 0.15 | 0.33 | 0.30 | 99 | 1007.0 |
| 20260507020035 | 10 | 236 | 3.2 | 9.7 | 0.10 | 0.23 | 0.20 | 99 | 1007.0 |
| 20260507015032 | 10 | 251 | 1.6 | 8.0 | 0.15 | 0.23 | 0.20 | 99 | 1007.0 |
| 20260507013046 | 10 | 248 | 4.8 | 16.1 | 0.15 | 0.20 | 0.18 | 99 | 1006.8 |
| 20260507012043 | 10 | 225 | 1.6 | 12.9 | 0.13 | 0.18 | 0.15 | 99 | 1006.8 |
| 20260507011100 | 11 | 247 | 4.8 | 9.7 | 0.13 | 0.18 | 0.15 | 99 | 1006.7 |
| 20260507010017 | 11 | 231 | 1.6 | 16.1 | 0.10 | 0.15 | 0.13 | 99 | 1006.7 |
| 20260507005114 | 11 | 223 | 4.8 | 9.7 | 0.05 | 0.10 | 0.05 | 98 | 1006.8 |
| 20260507004110 | 11 | 248 | 3.2 | 11.3 | 0.05 | 0.10 | 0.05 | 98 | 1006.8 |
| 20260507003107 | 11 | 217 | 1.6 | 11.3 | 0.03 | 0.05 | 0.03 | 98 | 1006.7 |
| 20260507002104 | 11 | 113 | 3.2 | 9.7 | 0.03 | 0.13 | 0.03 | 98 | 1006.7 |
| 20260507001100 | 11 | 90 | 1.6 | 6.4 | 0.03 | 0.13 | 0.03 | 99 | 1006.8 |
| 20260507000057 | 11 | 270 | 0.0 | 4.8 | 0.03 | 0.13 | 0.03 | 98 | 1006.7 |
| 20260506235054 | 12 | 195 | 1.6 | 11.3 | 0.00 | 0.10 | 0.00 | 98 | 1006.7 |
| 20260506234051 | 12 | 240 | 0.0 | 4.8 | 0.00 | 0.10 | 0.00 | 98 | 1006.7 |
| 20260506233108 | 12 | 216 | 3.2 | 11.3 | 0.00 | 0.10 | 0.00 | 97 | 1006.6 |
| 20260506232044 | 12 | 185 | 4.8 | 9.7 | 0.00 | 0.10 | 0.00 | 97 | 1006.6 |
| 20260506231041 | 12 | 181 | 4.8 | 12.9 | 0.00 | 0.10 | 0.00 | 97 | 1006.5 |
| 20260506230058 | 12 | 254 | 3.2 | 8.0 | 0.00 | 0.10 | 0.00 | 97 | 1006.4 |
| 20260506225055 | 12 | 200 | 1.6 | 9.7 | 0.00 | 0.10 | 0.00 | 97 | 1006.4 |
| 20260506224031 | 12 | 199 | 3.2 | 14.5 | 0.00 | 0.10 | 0.00 | 97 | 1006.3 |
| 20260506223028 | 12 | 224 | 4.8 | 12.9 | 0.00 | 0.10 | 0.00 | 97 | 1006.3 |
| 20260506221022 | 12 | 189 | 3.2 | 8.0 | 0.00 | 0.10 | 0.00 | 95 | 1006.1 |
| 20260506220019 | 13 | 225 | 0.0 | 4.8 | 0.00 | 0.10 | 0.00 | 94 | 1006.1 |
| 20260506215016 | 13 | 214 | 3.2 | 12.9 | 0.00 | 0.10 | 0.10 | 93 | 1006.0 |
| 20260506213109 | 13 | 245 | 1.6 | 6.4 | 0.00 | 0.10 | 0.10 | 92 | 1006.0 |
| 20260506212106 | 13 | 225 | 0.0 | 6.4 | 0.00 | 0.10 | 0.10 | 92 | 1005.9 |
| 20260506211102 | 13 | 212 | 1.6 | 4.8 | 0.00 | 0.10 | 0.10 | 92 | 1005.8 |
| 20260506210100 | 13 | 225 | 0.0 | 4.8 | 0.00 | 0.10 | 0.10 | 92 | 1005.7 |
| 20260506205056 | 13 | 180 | 1.6 | 4.8 | 0.00 | 0.10 | 0.10 | 92 | 1005.6 |
| 20260506203052 | 13 | 180 | 0.0 | 3.2 | 0.00 | 0.10 | 0.10 | 91 | 1005.6 |
| 20260506202047 | 13 | 180 | 0.0 | 4.8 | 0.00 | 0.10 | 0.10 | 90 | 1005.4 |
| 20260506201044 | 13 | 204 | 1.6 | 6.4 | 0.00 | 0.10 | 0.10 | 89 | 1005.4 |
| 20260506200040 | 14 | 206 | 1.6 | 6.4 | 0.00 | 0.10 | 0.10 | 88 | 1005.4 |
| 20260506195037 | 14 | 248 | 1.6 | 4.8 | 0.00 | 0.10 | 0.10 | 87 | 1005.3 |
| 20260506194034 | 14 | 192 | 4.8 | 12.9 | 0.00 | 0.10 | 0.10 | 86 | 1005.3 |
| 20260506193031 | 14 | 206 | 3.2 | 11.3 | 0.00 | 0.13 | 0.10 | 86 | 1005.2 |
| 20260506192028 | 15 | 185 | 1.6 | 6.4 | 0.00 | 0.13 | 0.10 | 86 | 1005.1 |
| 20260506191025 | 15 | 203 | 0.0 | 4.8 | 0.00 | 0.13 | 0.10 | 86 | 1005.0 |
| 20260506190021 | 15 | 207 | 1.6 | 6.4 | 0.00 | 0.13 | 0.10 | 85 | 1004.8 |
| 20260506185019 | 15 | 186 | 3.2 | 8.0 | 0.00 | 0.13 | 0.10 | 87 | 1004.6 |
| 20260506184015 | 15 | 195 | 1.6 | 4.8 | 0.00 | 0.13 | 0.10 | 87 | 1004.4 |
| 20260506182109 | 15 | 190 | 1.6 | 3.2 | 0.00 | 0.13 | 0.10 | 86 | 1004.1 |
| 20260506181106 | 15 | 263 | 1.6 | 4.8 | 0.00 | 0.13 | 0.10 | 86 | 1004.0 |
| 20260506174117 | 16 | 225 | 0.0 | 3.2 | 0.00 | 0.15 | 0.10 | 83 | 1003.9 |
| 20260506173054 | 16 | 198 | 1.6 | 6.4 | 0.00 | 0.15 | 0.10 | 81 | 1003.7 |
| 20260506172050 | 16 | 225 | 3.2 | 6.4 | 0.00 | 0.15 | 0.10 | 81 | 1003.6 |
| 20260506171047 | 16 | 235 | 1.6 | 6.4 | 0.00 | 0.18 | 0.10 | 81 | 1003.5 |
| 20260506165101 | 17 | 197 | 1.6 | 3.2 | 0.00 | 0.33 | 0.10 | 78 | 1003.4 |
| 20260506163034 | 17 | 238 | 0.0 | 6.4 | 0.00 | 0.66 | 0.10 | 74 | 1003.4 |
| 20260506162051 | 17 | 180 | 0.0 | 3.2 | 0.00 | 1.19 | 0.10 | 75 | 1003.6 |
| 20260506161028 | 17 | 264 | 1.6 | 6.4 | 0.00 | 1.32 | 0.10 | 74 | 1003.7 |
| 20260506160025 | 17 | 203 | 1.6 | 4.8 | 0.00 | 1.32 | 0.10 | 76 | 1003.8 |
| 20260506155038 | 17 | 270 | 0.0 | 4.8 | 0.00 | 1.32 | 0.10 | 76 | 1003.9 |
| 20260506153130 | 17 | 0.0 | 1.6 | 0.00 | 1.32 | 0.10 | 76 | 1003.8 | |
| 20260506152107 | 17 | 0.0 | 3.2 | 0.00 | 1.32 | 0.10 | 76 | 1003.8 | |
| 20260506151103 | 17 | 202 | 3.2 | 6.4 | 0.00 | 1.32 | 0.10 | 73 | 1003.7 |
| 20260506150100 | 17 | 222 | 1.6 | 6.4 | 0.00 | 1.32 | 0.10 | 76 | 1003.5 |
| 20260506144054 | 18 | 234 | 1.6 | 4.8 | 0.00 | 1.32 | 0.10 | 71 | 1003.8 |
| 20260506143050 | 18 | 225 | 0.0 | 6.4 | 0.00 | 1.32 | 0.10 | 72 | 1003.7 |
| 20260506142107 | 18 | 153 | 0.0 | 3.2 | 0.00 | 1.32 | 0.10 | 71 | 1003.8 |
| 20260506141044 | 19 | 198 | 1.6 | 6.4 | 0.00 | 1.32 | 0.10 | 68 | 1003.8 |
| 20260506140041 | 20 | 257 | 0.0 | 6.4 | 0.00 | 1.32 | 0.10 | 68 | 1003.8 |
| 20260506135038 | 20 | 156 | 0.0 | 6.4 | 0.00 | 1.32 | 0.10 | 64 | 1004.0 |
| 20260506133031 | 18 | 81 | 1.6 | 8.0 | 0.00 | 1.32 | 0.10 | 68 | 1003.9 |
| 20260506132028 | 18 | 234 | 1.6 | 4.8 | 0.00 | 1.32 | 0.10 | 69 | 1004.0 |
| 20260506131025 | 18 | 0.0 | 3.2 | 0.00 | 1.32 | 0.10 | 70 | 1004.1 | |
| 20260506130022 | 18 | 180 | 3.2 | 9.7 | 0.00 | 1.32 | 0.10 | 72 | 1004.1 |
| 20260506125019 | 18 | 248 | 1.6 | 4.8 | 0.00 | 1.32 | 0.10 | 70 | 1004.1 |
| 20260506124016 | 18 | 207 | 0.0 | 3.2 | 0.00 | 1.32 | 0.10 | 68 | 1004.2 |
| 20260506122109 | 17 | 187 | 1.6 | 4.8 | 0.00 | 1.32 | 0.10 | 73 | 1004.4 |
| 20260506121106 | 17 | 229 | 0.0 | 6.4 | 0.00 | 1.32 | 0.10 | 74 | 1004.4 |
| 20260506114117 | 17 | 211 | 1.6 | 6.4 | 0.00 | 1.32 | 0.10 | 74 | 1004.5 |
| 20260506113054 | 17 | 270 | 1.6 | 9.7 | 0.00 | 1.32 | 0.10 | 74 | 1004.5 |
| 20260506112050 | 18 | 270 | 1.6 | 11.3 | 0.00 | 1.32 | 0.10 | 73 | 1004.7 |
| 20260506111047 | 17 | 225 | 3.2 | 9.7 | 0.00 | 1.32 | 0.10 | 74 | 1004.7 |
| 20260506110044 | 17 | 256 | 1.6 | 9.7 | 0.00 | 1.32 | 0.10 | 76 | 1004.7 |
| 20260506105043 | 17 | 297 | 3.2 | 6.4 | 0.00 | 1.32 | 0.10 | 75 | 1004.7 |
| 20260506104057 | 17 | 180 | 0.0 | 4.8 | 0.00 | 1.32 | 0.10 | 77 | 1004.8 |
| 20260506103034 | 17 | 315 | 0.0 | 4.8 | 0.00 | 1.32 | 0.10 | 80 | 1004.8 |
| 20260506101028 | 16 | 272 | 3.2 | 11.3 | 0.00 | 1.32 | 0.10 | 80 | 1004.8 |
| 20260506100025 | 16 | 241 | 4.8 | 14.5 | 0.00 | 1.32 | 0.10 | 82 | 1004.9 |
| 20260506095025 | 16 | 317 | 1.6 | 12.9 | 0.00 | 1.32 | 0.10 | 80 | 1004.9 |
| 20260506092113 | 16 | 241 | 6.4 | 14.5 | 0.00 | 1.32 | 0.10 | 84 | 1005.2 |
| 20260506091110 | 15 | 191 | 4.8 | 9.7 | 0.00 | 1.32 | 0.10 | 85 | 1005.0 |